Temperature
5 5 5 5 6 6 5 5 5 6 6 6 6 6 6 7 7 7 7 8 8 8 8 9 9 9 9 9 9 9 10 10 10 9 9 9 9 9 9 8 8 8 8 8
5 6 5 5 6 6 6 6 6 6 6 6 6 6 6 6 7 7 7 7 7 7 8 8 8 9 9 9 9 9 9 9 9 9 9 8 8 8 8 8 7 7 7 7
4 5 5 5 5 5 5 5 6 5 6 6 6 6 6 6 6 6 6 6 7 7 7 7 8 8 8 8 8 8 8 8 8 8 8 8 8 7 7 7 7 7 6 6
4 4 4 5 5 5 5 5 5 5 5 5 5 5 5 5 6 6 6 6 6 6 6 7 7 7 7 7 8 8 8 8 8 8 7 7 7 7 7 6 6 6 6 5
3 3 4 5 5 5 5 4 4 4 4 4 5 5 5 5 5 5 5 5 6 6 6 6 6 7 7 7 7 7 7 7 7 7 7 7 6 6 6 6 5 5 5 5
3 3 3 4 5 5 5 4 3 3 3 3 4 4 3 4 4 4 4 5 5 5 5 5 6 6 6 6 7 7 7 7 7 6 6 6 6 5 5 5 5 4 4 4
2 3 3 4 4 5 4 4 3 3 3 3 2 2 3 3 3 4 4 4 4 5 5 5 5 5 6 6 6 6 6 6 6 6 5 5 5 5 5 4 4 4 3 3
2 2 3 3 3 3 3 2 2 2 2 2 2 2 2 2 3 3 3 4 4 4 4 4 5 5 5 5 5 5 5 5 5 5 5 5 4 4 4 3 3 3 3 3
2 3 3 3 3 2 2 2 2 2 2 1 1 1 2 2 2 2 3 3 3 3 4 4 4 4 4 4 4 4 5 5 4 4 4 4 4 3 3 3 3 2 2 2
2 2 2 2 2 2 2 2 2 1 1 1 1 1 1 1 1 2 2 2 3 3 3 3 3 3 3 4 4 4 4 4 4 4 3 3 3 3 2 2 2 2 2 1
1 1 1 2 2 2 1 1 1 1 1 1 0 1 1 1 1 1 1 2 2 2 2 3 3 3 3 3 3 3 3 3 3 3 3 2 2 2 2 1 1 1 1 1
1 1 0 1 1 1 1 0 0 0 0 0 -0 -0 -0 0 0 0 1 1 1 1 2 2 2 2 2 2 2 2 2 2 2 2 2 2 1 1 1 1 1 0 0 0
2 2 2 1 1 1 0 0 -0 -0 -0 -0 -0 -1 -1 -0 -0 -0 0 0 1 1 1 1 1 1 1 1 1 1 1 1 1 1 1 1 1 1 1 0 0 0 0 -0
2 1 1 1 0 0 -0 -0 -1 -1 -1 -1 -1 -1 -1 -1 -1 -1 -0 -0 -0 -0 0 0 0 0 0 0 0 0 1 1 0 0 0 0 0 0 0 0 0 0 -0 -0
1 1 1 0 -0 -0 -1 -1 -1 -1 -1 -1 -2 -2 -1 -1 -1 -1 -1 -1 -1 -1 -1 -1 -0 -0 -0 -0 -0 -0 0 0 -0 -0 -0 -0 -0 -0 -0 -0 -1 -1 -1 -1
1 0 0 -0 -1 -1 -1 -1 -1 -1 -2 -2 -2 -2 -2 -2 -2 -1 -1 -1 -1 -1 -1 -1 -1 -1 -1 -1 -1 -1 -1 -1 -1 -1 -1 -1 -1 -1 -1 -1 -1 -1 -1 -1
0 -0 -0 -1 -1 -1 -1 -2 -2 -2 -2 -2 -2 -2 -2 -2 -2 -2 -2 -2 -2 -2 -2 -2 -2 -2 -2 -2 -1 -1 -1 -1 -1 -1 -1 -1 -2 -2 -2 -2 -2 -2 -2 -2
0 -0 -1 -1 -1 -2 -2 -2 -2 -2 -2 -3 -3 -3 -3 -3 -3 -2 -2 -2 -2 -2 -2 -2 -2 -2 -2 -2 -2 -2 -2 -2 -2 -2 -2 -2 -2 -2 -2 -2 -2 -2 -2 -2
-0 -1 -1 -1 -2 -2 -2 -2 -2 -3 -3 -3 -3 -3 -3 -3 -3 -3 -3 -3 -3 -3 -3 -3 -3 -3 -3 -3 -3 -3 -3 -3 -3 -3 -3 -3 -3 -3 -3 -3 -3 -3 -3 -3
-1 -1 -1 -2 -2 -2 -2 -3 -3 -3 -3 -3 -3 -3 -3 -3 -4 -4 -3 -3 -3 -4 -3 -3 -3 -3 -3 -3 -3 -3 -3 -3 -3 -3 -3 -3 -3 -3 -3 -3 -3 -3 -3 -3
-1 -1 -2 -2 -2 -2 -3 -3 -3 -3 -3 -3 -4 -4 -4 -4 -4 -4 -4 -4 -4 -4 -4 -4 -4 -4 -3 -3 -4 -4 -4 -4 -4 -4 -4 -4 -4 -4 -4 -4 -4 -4 -4 -4
-1 -2 -2 -2 -2 -2 -3 -3 -3 -3 -4 -4 -4 -4 -4 -4 -4 -5 -5 -5 -4 -4 -4 -4 -4 -4 -4 -4 -4 -4 -4 -4 -4 -4 -4 -4 -4 -4 -4 -4 -4 -4 -4 -4
-2 -2 -2 -2 -3 -3 -3 -3 -4 -4 -4 -4 -4 -4 -4 -4 -5 -5 -5 -5 -5 -5 -5 -4 -5 -5 -5 -5 -4 -5 -5 -5 -5 -5 -5 -5 -5 -5 -5 -5 -5 -5 -5 -5
-2 -2 -2 -3 -3 -3 -3 -3 -4 -4 -4 -4 -4 -4 -5 -5 -5 -5 -5 -5 -5 -5 -5 -5 -5 -5 -5 -5 -5 -5 -5 -5 -5 -5 -5 -5 -5 -5 -5 -5 -5 -5 -5 -5
-2 -2 -3 -3 -3 -4 -4 -4 -4 -4 -4 -4 -4 -5 -5 -5 -5 -5 -5 -5 -5 -5 -5 -5 -5 -5 -5 -5 -5 -5 -5 -5 -5 -6 -6 -6 -6 -6 -6 -6 -6 -6 -6 -6
-2 -3 -3 -3 -4 -4 -4 -4 -4 -4 -4 -4 -5 -5 -5 -5 -5 -5 -5 -6 -6 -6 -6 -6 -6 -6 -6 -6 -6 -6 -6 -6 -6 -6 -6 -6 -6 -6 -6 -6 -6 -6 -6 -6
-3 -3 -3 -3 -4 -4 -5 -5 -5 -5 -5 -5 -5 -5 -5 -5 -5 -6 -6 -6 -6 -6 -6 -6 -6 -6 -6 -6 -6 -6 -6 -6 -6 -6 -6 -6 -6 -6 -6 -6 -6 -6 -6 -6
Wind_Speed
3 4 3 3 4 3 5 5 4 4 5 7 5 4 4 4 3 3 2 2 1 1 2 2 2 2 3 3 4 5 6 6 6 6 6 6 6 5 5 5 5 4 4 3
3 2 1 3 5 4 4 4 5 6 7 4 4 2 2 3 3 3 3 3 2 2 2 2 3 3 3 4 4 5 6 6 6 6 6 6 6 5 5 4 4 4 4 4
2 4 3 3 4 2 1 1 2 4 3 4 4 4 4 3 3 3 3 3 3 3 3 3 3 3 4 4 4 5 6 6 6 6 6 6 6 5 5 4 4 4 3 3
1 3 1 3 2 1 1 3 4 2 4 4 3 2 4 4 3 4 4 4 3 3 3 3 3 2 3 3 4 4 5 6 6 7 6 6 6 5 5 4 4 4 4 4
1 1 3 3 3 2 1 2 6 5 6 6 5 3 4 6 6 5 5 5 4 3 3 3 2 1 2 2 3 4 5 5 6 7 7 6 6 6 4 4 4 3 3 4
1 1 3 3 5 5 0 1 4 5 6 7 6 4 5 8 8 7 6 4 4 3 3 3 3 1 2 2 2 4 5 5 5 6 7 7 6 5 4 4 4 4 3 4
2 3 4 4 6 3 1 3 3 4 5 6 4 4 6 8 8 7 6 5 4 3 3 3 3 1 1 1 2 3 2 3 4 5 5 6 5 4 4 4 4 4 3 3
3 3 5 2 2 1 2 2 3 4 4 5 5 6 6 7 7 7 7 6 4 3 3 4 3 1 0 1 2 0 1 2 3 3 4 4 5 5 5 5 5 4 4 3
5 5 1 1 2 1 0 1 2 3 5 5 6 7 7 7 7 7 6 5 4 3 3 3 3 2 1 2 1 0 1 2 2 3 3 4 5 6 5 5 5 4 4 4
3 3 2 2 1 0 1 2 3 4 5 5 6 7 8 7 7 7 6 5 4 3 3 3 3 2 2 1 0 1 1 1 2 2 3 3 4 4 5 5 5 5 5 5
3 2 1 2 1 1 2 3 4 5 5 6 7 8 7 7 7 7 6 5 4 3 4 3 3 2 2 1 0 1 1 1 1 2 3 3 3 4 5 5 6 7 6 5
5 4 4 4 3 2 3 4 5 6 6 6 6 8 8 7 6 6 6 5 4 4 3 3 2 2 2 1 0 1 1 1 2 2 2 2 3 2 5 7 9 11 10 8
4 3 3 4 2 2 3 4 5 5 6 7 6 7 7 7 6 6 6 5 5 5 4 3 2 1 2 1 1 1 2 2 2 2 2 3 3 3 3 3 6 9 10 11
3 2 2 2 3 4 4 4 5 6 6 6 6 6 6 7 7 6 6 5 5 5 3 2 2 2 2 2 1 2 2 3 2 2 2 3 3 3 3 4 3 3 6 9
4 3 4 3 3 4 4 4 5 6 6 6 5 6 6 7 7 7 6 5 5 4 3 3 3 3 2 2 2 2 2 2 2 2 2 3 3 3 3 4 4 4 3 4
3 2 2 3 4 5 5 5 6 7 6 7 7 7 7 7 7 7 5 4 4 5 4 3 4 4 2 2 2 2 2 3 2 2 2 2 3 3 4 4 4 4 4 4
3 3 4 4 5 6 6 6 6 7 7 7 8 8 7 7 7 6 5 4 4 4 4 4 4 3 2 2 2 2 2 3 3 3 3 3 3 4 4 4 4 5 5 5
5 5 5 5 6 7 7 6 6 7 7 7 7 7 6 6 7 7 6 5 4 4 4 4 3 3 2 2 2 2 2 2 3 3 3 3 4 4 4 4 5 5 4 4
3 4 4 5 5 5 5 6 6 6 6 6 6 7 6 6 6 6 5 5 5 5 4 4 4 2 2 3 3 2 2 3 3 3 3 4 4 3 3 4 4 4 4 4
3 3 4 4 4 4 5 6 6 6 6 5 6 6 6 6 5 5 5 5 4 4 4 4 3 3 3 3 3 2 2 3 3 3 3 3 4 4 4 4 4 4 4 4
4 4 4 4 5 6 6 6 6 7 6 5 6 6 6 6 5 5 5 5 5 4 4 6 3 3 3 3 4 2 3 3 3 4 4 4 4 4 4 4 4 4 4 4
3 4 5 5 6 7 6 5 6 7 6 6 6 6 6 6 6 5 5 5 5 6 4 3 3 5 5 4 2 2 3 3 3 3 3 3 4 4 4 4 4 4 4 4
4 4 5 6 6 7 6 6 6 6 6 6 6 6 6 5 4 4 5 4 4 6 4 3 5 7 7 3 2 3 3 3 3 3 4 4 4 4 4 5 4 4 4 4
4 5 5 5 4 5 6 6 6 5 5 6 6 5 5 5 4 3 4 6 7 7 4 5 7 7 6 2 2 2 3 3 3 3 4 4 4 4 4 4 4 4 4 5
4 4 4 4 5 5 6 6 5 5 5 4 5 5 4 4 4 4 3 4 6 6 3 5 7 7 4 2 2 3 3 3 4 3 3 3 3 3 4 4 4 4 4 4
4 4 4 5 5 5 4 4 4 4 4 4 4 4 3 3 3 3 3 3 4 5 3 3 4 4 3 3 3 3 3 4 4 3 3 3 4 4 4 4 5 4 4 4
4 3 3 4 4 4 4 4 4 5 4 4 5 4 3 3 2 3 3 3 3 3 3 3 3 3 3 3 3 3 3 3 3 3 3 3 3 3 4 4 4 4 4 4
Wind_Direction
259 255 230 252 265 245 219 220 222 252 270 286 293 292 298 309 323 330 339 332 311 300 269 249 240 211 186 178 173 159 150 152 159 152 143 138 136 135 134 135 138 137 132 128
317 322 351 305 297 268 249 245 241 265 280 285 302 297 315 321 328 324 325 315 305 312 279 248 237 220 196 189 186 165 162 166 156 146 144 145 145 142 140 139 137 136 142 148
298 319 1 322 304 247 205 253 231 257 284 327 340 355 342 331 334 327 322 325 315 302 281 257 245 224 208 201 178 166 169 166 160 156 155 157 152 147 152 151 144 142 147 147
312 10 270 258 328 4 123 23 13 17 357 352 338 12 15 360 337 327 324 321 317 313 315 297 273 242 207 179 168 171 176 173 169 165 165 161 156 161 162 157 158 163 167 163
126 258 278 297 332 350 304 356 5 7 357 347 336 6 5 5 360 338 324 317 312 308 309 315 299 251 172 166 170 176 185 185 180 174 172 170 173 176 170 164 168 172 171 171
155 190 245 275 309 315 268 292 6 11 359 348 350 336 322 343 345 342 336 334 336 341 346 337 325 327 143 172 183 206 205 196 183 176 177 181 183 177 168 166 175 172 176 182
197 222 261 292 307 346 158 278 347 360 352 347 339 298 305 325 335 339 338 337 343 353 350 337 335 16 146 177 223 232 202 175 172 175 179 179 173 168 164 164 166 174 183 196
179 205 249 318 45 124 243 322 345 346 340 330 320 317 320 326 331 336 337 339 342 347 342 343 352 10 172 248 269 259 145 159 171 174 175 169 166 167 166 168 175 185 192 213
196 211 204 111 141 170 124 309 313 318 318 318 315 315 317 318 320 324 326 329 333 329 332 344 354 2 300 299 340 81 143 171 178 173 174 171 172 175 175 179 187 196 199 215
225 240 228 196 156 64 319 294 303 306 310 312 307 308 310 310 310 314 318 318 321 321 319 320 331 341 313 314 5 108 158 190 182 177 181 180 179 183 189 192 197 201 206 215
238 254 302 230 233 282 304 311 313 316 311 307 304 303 303 305 304 304 309 308 306 299 294 297 312 324 336 334 110 142 189 202 195 190 190 196 200 203 204 210 206 204 210 208
219 214 209 246 253 264 283 296 301 307 309 308 304 302 304 302 301 300 302 303 301 297 291 295 302 310 326 328 185 187 231 230 219 211 206 202 207 230 229 225 229 227 224 218
201 198 211 234 248 261 268 287 295 296 296 303 308 306 305 304 304 304 304 305 303 297 289 287 299 310 319 320 301 239 244 247 240 226 218 215 212 216 240 248 239 238 234 233
190 163 220 231 255 272 276 287 294 298 294 292 302 307 308 307 307 307 305 305 305 301 294 285 282 294 309 310 292 274 262 247 238 232 230 229 226 225 225 232 248 253 242 241
200 200 219 246 261 275 282 293 299 299 302 307 307 306 307 306 303 301 303 307 307 306 305 300 292 296 306 303 290 279 269 255 245 237 233 232 229 228 230 233 239 248 252 251
219 236 238 253 269 282 286 285 287 289 295 300 302 300 298 296 295 296 300 306 305 304 304 300 296 299 294 288 289 285 276 272 269 253 246 241 233 231 233 234 237 239 242 241
189 232 248 268 275 278 277 275 277 282 288 290 293 295 297 299 299 296 296 296 292 291 292 290 291 295 285 274 272 277 277 272 270 264 248 245 241 238 240 239 240 242 244 242
207 221 232 246 264 276 281 282 281 281 281 283 287 290 290 290 291 293 297 301 300 299 298 287 286 287 279 278 273 271 267 266 264 260 258 252 248 242 243 245 248 252 258 256
222 235 248 259 264 268 276 281 284 283 280 281 284 283 284 286 289 295 300 300 297 295 301 297 301 295 282 281 287 264 261 268 270 270 266 265 261 249 247 250 253 255 257 252
232 251 262 272 275 276 281 283 284 284 280 275 279 283 286 288 289 290 293 288 283 280 291 298 298 281 273 271 278 260 260 263 264 264 263 258 258 256 255 256 256 256 253 250
242 258 268 274 280 279 277 279 281 282 283 278 276 277 279 286 290 287 286 288 291 287 292 299 298 288 280 280 276 262 257 261 263 260 261 263 263 261 260 260 260 258 255 254
245 258 267 272 277 282 282 277 274 278 280 278 276 275 279 287 291 287 272 270 286 296 296 287 285 287 293 295 273 265 262 265 269 267 263 261 260 261 263 264 264 263 259 256
249 257 265 269 273 280 284 278 274 275 275 277 277 275 273 276 279 280 288 286 285 294 296 282 288 295 301 298 276 270 269 270 270 269 268 264 261 261 261 263 264 263 263 263
252 261 267 274 279 280 283 282 279 275 271 275 273 271 271 280 281 263 266 291 299 301 297 294 300 304 311 301 279 274 271 271 270 269 271 269 264 264 265 267 267 265 263 263
253 261 268 276 277 276 277 284 286 281 277 277 276 274 266 258 266 283 287 289 298 305 303 305 309 314 320 299 286 279 274 269 269 270 267 272 271 269 268 269 268 270 269 266
253 260 263 261 263 270 279 281 281 283 281 284 286 277 271 268 269 279 286 289 293 303 305 300 303 308 305 297 291 287 285 289 294 291 281 279 276 275 274 275 275 272 271 270
270 270 276 282 276 265 268 272 273 278 276 276 282 284 283 283 280 281 284 290 295 298 299 300 300 299 299 299 298 295 292 289 287 284 283 281 280 277 276 274 274 273 272 270
Height
1496 1493 1493 1492 1490 1490 1491 1491 1493 1488 1485 1481 1480 1478 1476 1474 1472 1471 1470 1469 1468 1468 1468 1468 1469 1469 1470 1471 1472 1473 1475 1477 1478 1480 1482 1484 1486 1487 1489 1490 1491 1492 1493 1494
1495 1491 1491 1491 1488 1488 1487 1487 1487 1485 1484 1480 1478 1477 1475 1473 1472 1470 1469 1468 1467 1467 1466 1466 1466 1467 1467 1468 1469 1470 1472 1474 1475 1477 1479 1481 1482 1484 1485 1486 1487 1488 1489 1490
1500 1494 1492 1493 1489 1487 1486 1485 1484 1484 1483 1479 1478 1476 1475 1473 1472 1470 1469 1467 1467 1466 1465 1465 1465 1465 1465 1466 1467 1468 1469 1470 1472 1474 1476 1477 1479 1481 1482 1483 1484 1484 1485 1485
1501 1498 1499 1494 1487 1486 1486 1485 1484 1483 1482 1480 1478 1477 1475 1474 1472 1470 1468 1467 1465 1464 1463 1463 1463 1463 1463 1463 1464 1465 1466 1467 1469 1471 1473 1474 1475 1477 1478 1479 1480 1481 1481 1481
1504 1503 1497 1491 1488 1487 1487 1487 1486 1484 1482 1480 1477 1475 1474 1473 1471 1470 1468 1466 1464 1463 1462 1461 1460 1460 1460 1460 1461 1462 1463 1464 1466 1468 1469 1471 1472 1474 1475 1476 1476 1477 1477 1478
1503 1502 1500 1492 1488 1485 1487 1488 1487 1485 1483 1480 1478 1477 1475 1472 1470 1468 1466 1465 1463 1461 1460 1459 1458 1458 1458 1458 1458 1459 1460 1461 1463 1464 1466 1467 1469 1470 1471 1472 1473 1473 1473 1474
1504 1502 1495 1490 1487 1486 1491 1490 1487 1485 1483 1481 1480 1479 1476 1472 1469 1467 1465 1463 1462 1460 1459 1457 1456 1456 1455 1455 1456 1456 1457 1458 1459 1461 1462 1464 1465 1466 1467 1468 1469 1469 1469 1470
1501 1501 1498 1489 1487 1489 1490 1488 1486 1484 1483 1481 1479 1476 1473 1471 1468 1466 1464 1462 1460 1458 1457 1456 1455 1454 1453 1453 1453 1454 1454 1455 1456 1457 1459 1460 1461 1462 1463 1464 1464 1465 1465 1466
1494 1493 1488 1487 1487 1488 1487 1486 1485 1483 1482 1480 1477 1474 1472 1469 1466 1464 1462 1460 1458 1457 1455 1454 1453 1452 1452 1451 1451 1451 1451 1452 1453 1454 1455 1456 1457 1458 1459 1460 1460 1460 1461 1461
1490 1487 1487 1486 1486 1486 1485 1484 1483 1482 1480 1477 1475 1472 1469 1467 1464 1461 1459 1457 1456 1454 1453 1452 1451 1450 1449 1449 1449 1448 1449 1449 1449 1450 1451 1452 1453 1454 1455 1455 1456 1456 1456 1457
1487 1486 1485 1484 1484 1484 1483 1482 1481 1479 1477 1475 1473 1470 1467 1464 1461 1459 1457 1455 1453 1452 1450 1449 1448 1447 1447 1446 1446 1445 1445 1446 1446 1446 1447 1448 1449 1450 1450 1451 1452 1452 1452 1453
1484 1482 1483 1482 1482 1481 1480 1479 1478 1476 1473 1472 1470 1466 1464 1461 1459 1456 1454 1452 1450 1449 1447 1446 1445 1444 1443 1443 1443 1442 1442 1442 1442 1443 1443 1444 1444 1445 1446 1447 1447 1447 1448 1448
1479 1479 1480 1479 1479 1479 1477 1476 1474 1472 1470 1468 1466 1463 1461 1458 1456 1453 1451 1449 1447 1445 1444 1443 1442 1441 1440 1440 1439 1439 1439 1439 1439 1439 1439 1440 1440 1441 1441 1442 1443 1443 1443 1444
1477 1477 1477 1477 1476 1475 1474 1472 1470 1469 1467 1465 1462 1460 1457 1455 1452 1450 1448 1445 1444 1442 1440 1439 1438 1438 1437 1436 1436 1436 1435 1435 1435 1435 1436 1436 1436 1437 1437 1437 1438 1438 1439 1439
1474 1474 1474 1473 1473 1472 1470 1469 1467 1465 1463 1461 1459 1456 1454 1451 1449 1447 1444 1442 1440 1438 1437 1436 1435 1434 1433 1433 1432 1432 1432 1432 1432 1432 1432 1432 1432 1433 1433 1433 1433 1433 1434 1434
1471 1471 1471 1470 1469 1468 1466 1465 1463 1461 1459 1457 1455 1452 1450 1448 1445 1443 1441 1439 1437 1435 1434 1433 1431 1431 1430 1429 1429 1428 1428 1428 1428 1428 1428 1428 1428 1428 1428 1428 1429 1429 1429 1429
1468 1467 1467 1466 1465 1464 1463 1461 1459 1457 1455 1453 1451 1449 1446 1444 1441 1439 1437 1435 1433 1432 1430 1429 1428 1427 1426 1426 1425 1425 1425 1424 1424 1424 1424 1424 1424 1424 1424 1424 1424 1424 1424 1424
1464 1464 1464 1463 1462 1460 1459 1457 1455 1453 1451 1449 1447 1445 1442 1440 1438 1436 1434 1432 1430 1428 1427 1426 1425 1424 1423 1422 1422 1421 1421 1420 1420 1420 1420 1420 1419 1419 1419 1419 1419 1419 1419 1419
1461 1461 1460 1459 1458 1456 1454 1453 1451 1449 1447 1445 1443 1440 1438 1436 1434 1432 1430 1428 1427 1425 1424 1423 1421 1420 1419 1419 1418 1417 1417 1417 1416 1416 1416 1416 1415 1415 1415 1415 1414 1414 1414 1413
1457 1457 1456 1455 1454 1452 1450 1448 1446 1444 1443 1441 1438 1436 1434 1432 1431 1429 1427 1425 1423 1422 1420 1419 1418 1417 1416 1415 1415 1414 1414 1413 1412 1412 1411 1411 1411 1411 1410 1410 1410 1409 1409 1408
1453 1453 1452 1451 1450 1448 1446 1445 1442 1440 1439 1437 1435 1432 1430 1429 1427 1425 1423 1421 1420 1419 1417 1416 1414 1413 1412 1412 1411 1410 1410 1409 1408 1408 1407 1407 1407 1406 1406 1405 1405 1404 1404 1404
1450 1449 1448 1447 1446 1444 1442 1440 1438 1436 1435 1433 1431 1429 1427 1425 1423 1421 1419 1418 1416 1415 1413 1412 1411 1410 1409 1408 1407 1406 1405 1405 1404 1404 1403 1403 1402 1402 1401 1401 1400 1400 1399 1399
1446 1446 1445 1443 1442 1440 1438 1436 1435 1433 1431 1429 1427 1425 1423 1421 1420 1418 1416 1414 1413 1411 1410 1408 1407 1406 1405 1404 1403 1402 1401 1400 1400 1399 1399 1398 1398 1397 1396 1396 1395 1395 1394 1393
1443 1442 1441 1439 1438 1436 1434 1432 1431 1429 1427 1425 1423 1421 1420 1418 1416 1414 1413 1411 1409 1407 1406 1405 1403 1402 1401 1400 1399 1398 1397 1396 1395 1395 1394 1393 1393 1392 1392 1391 1390 1390 1389 1388
1439 1438 1437 1435 1434 1432 1430 1428 1426 1425 1423 1421 1420 1418 1416 1414 1413 1411 1409 1407 1406 1404 1403 1401 1400 1399 1398 1396 1395 1394 1393 1392 1391 1391 1390 1389 1388 1388 1387 1386 1386 1385 1384 1383
1435 1434 1433 1431 1430 1428 1426 1424 1422 1421 1419 1417 1416 1414 1413 1411 1409 1407 1406 1404 1403 1401 1400 1398 1397 1395 1394 1393 1392 1391 1390 1389 1388 1387 1386 1385 1384 1384 1383 1382 1381 1380 1380 1379
1431 1430 1429 1427 1426 1424 1422 1420 1419 1417 1415 1414 1412 1411 1409 1408 1406 1404 1403 1401 1400 1398 1397 1395 1394 1392 1391 1390 1388 1387 1386 1385 1384 1383 1382 1382 1381 1380 1379 1378 1377 1376 1375 1374